Regional Weather Roundup
Issued by NWS

Home | Current Version | Previous Version | Graphics & Text | Print | Product List | Glossary On
Versions: 1 2 3 4 5 6 7 8 9 10 11 12 13 14 15 16 17 18 19 20 21 22 23 24 25 26 27 28 29 30 31 32 33 34 35 36 37 38 39 40 41 42 43 44 45 46 47 48 49 50
282
ASUS44 KLIX 290010
RWRLA
LOUISIANA WEATHER ROUNDUP
NATIONAL WEATHER SERVICE NEW ORLEANS LA
700 PM CDT MON JUL 28 2014

NOTE: "FAIR" INDICATES FEW OR NO CLOUDS BELOW 12,000 FEET WITH NO
      SIGNIFICANT WEATHER AND/OR OBSTRUCTIONS TO VISIBILITY.
      SKY/WX - SKY CONDITION AND SIGNIFICANT WEATHER.
      TMP - AIR TEMPERATURE.    DP   - DEWPOINT TEMPERATURE.
      RH  - RELATIVE HUMIDITY.  PRES - PRESSURE.
      HX  - HEAT INDEX.         WCI  - WIND CHILL INDEX.

*  THESE STATIONS ARE NOT NWS OR FAA STATIONS AND ARE NOT UNDER
   NWS QUALITY CONTROL.

LAZ040-048-061>063-065-066-069-290100-
SOUTHEAST LOUISIANA

CITY           SKY/WX    TMP DP  RH WIND       PRES   REMARKS
N.O. AUDUBON     N/A     93  76  58 MISG        N/A  HX 105
6HR MIN TEMP:  92; 6HR MAX TEMP:  96;

N.O. INTL ARPT PTSUNNY   90  75  61 W8        29.97F HX 100
6HR MIN TEMP:  90; 6HR MAX TEMP:  94;

N.O. LAKEFRONT MOSUNNY   89  77  67 W13       29.97F HX 101
6HR MIN TEMP:  89; 6HR MAX TEMP:  91;

N.O. DOWNTOWN* FAIR      91  72  52 W8        29.97F HX  98
6HR MIN TEMP:  91; 6HR MAX TEMP:  97;

SLIDELL        MOSUNNY   89  77  67 W3        29.96S HX 101
6HR MIN TEMP:  81; 6HR MAX TEMP:  92; 6HR PCP: TRACE;

BATON ROUGE    CLOUDY    86  75  69 W8        29.99R HX  95
6HR MIN TEMP:  86; 6HR MAX TEMP:  94;

BOOTHVILLE     PTCLDY    86  80  82 W14G22    29.98F HX 101
6HR MIN TEMP:  86; 6HR MAX TEMP:  90;

BELLE CHASSE   MOSUNNY   89  74  60 W6        29.96F HX  98
6HR MIN TEMP:  89; 6HR MAX TEMP:  93;

BOGALUSA*      FAIR      88  77  69 NW3       29.99R HX 100
6HR MIN TEMP:  88; 6HR MAX TEMP:  93;

GALLIANO*      NOT AVBL
NEW ROADS*     MOCLDY    85  75  74 N10       30.00R
6HR MIN TEMP:  85; 6HR MAX TEMP:  92;

GONZALES*      FAIR      86  80  81 CALM      29.98S HX 100
6HR MIN TEMP:  86; 6HR MAX TEMP:  92;

HAMMOND*       MOSUNNY   90  73  58 NW6       30.00R HX  98
HOUMA*         MOSUNNY   90  73  58 W9        29.99  HX  98
PORT FOURCHON* CLEAR     88  77  70 W16       30.01S HX 100

$$

LAZ041-044-053-054-290100-
SOUTHWEST LOUISIANA

CITY           SKY/WX    TMP DP  RH WIND       PRES   REMARKS
LAKE CHARLES   SUNNY     91  73  55 W5        30.00S HX  99
6HR MIN TEMP:  91; 6HR MAX TEMP:  95;

LAFAYETTE      NOT AVBL
PATTERSON      PTSUNNY   86  79  79 W8        30.04S HX  99
6HR MIN TEMP:  86; 6HR MAX TEMP:  93;

SALT POINT       N/A     89  79  72 VRB7      30.00S HX 104
6HR MIN TEMP:  89; 6HR MAX TEMP:  93;

NEW IBERIA     CLOUDY    89  76  65 W6        30.00S HX 100
6HR MIN TEMP:  89; 6HR MAX TEMP:  93;

CHENAULT AIRPK MOSUNNY   93  70  46 NW6       30.00S HX  99

$$

LAZ027-028-290100-
CENTRAL LOUISIANA

CITY           SKY/WX    TMP DP  RH WIND       PRES   REMARKS
FORT POLK      CLOUDY    88  74  63 NW6       30.03R HX  96
6HR MIN TEMP:  88; 6HR MAX TEMP:  93;

ALEXANDRIA INT CLOUDY    83  73  72 N3        30.01R
6HR MIN TEMP:  83; 6HR MAX TEMP:  95;

ALEXANDRIA     CLOUDY    79  74  84 NE3       30.03R
6HR MIN TEMP:  78; 6HR MAX TEMP:  96; 6HR PCP:  0.02;


$$

LAZ001-002-290100-
NORTHWEST LOUISIANA

CITY           SKY/WX    TMP DP  RH WIND       PRES   REMARKS
SHREVEPORT     PTSUNNY   88  67  49 N8        30.05R
6HR MIN TEMP:  88; 6HR MAX TEMP:  94;

BARKSDALE AFB  PTSUNNY   86  68  54 N5        30.05R
6HR MIN TEMP:  86; 6HR MAX TEMP:  92;

DTN SHREVEPORT PTSUNNY   87  68  52 N3        30.05R
6HR MIN TEMP:  87; 6HR MAX TEMP:  92;


$$

LAZ014-016-290100-
NORTHEAST LOUISIANA

CITY           SKY/WX    TMP DP  RH WIND       PRES   REMARKS
MONROE         MOSUNNY   88  69  53 N5        30.02R
6HR MIN TEMP:  88; 6HR MAX TEMP:  92;

TALLULAH       SUNNY     85  69  58 N6        30.01R
6HR MIN TEMP:  85; 6HR MAX TEMP:  93;


$$




USA.gov is the U.S. government's official web portal to all federal, state and local government web resources and services.